Volver al catálogo

STARLINK-3052

ActivoComunicacionesVLEO
NORAD 49165·PAYLOAD·🇺🇸 United States

Lanzado Sep 14, 2021 desde Vandenberg Space Force Base

Loading…

Próximos Pases (próximas 24 horas)

TLE

ActualizadoSource: CelesTrak SupGP

Época: Sep 14, 2026, 21:30 UTC

1 49165C 21082AM  26257.89631944  .00549340  00000+0  42098-1 0  2579
2 49165  70.0005 177.3961 0003209 268.2415 248.2164 15.01482601    11

Sigue STARLINK-3052 en tiempo real con AllMySat

Download on the App Store